Wynyard / W.B. Needham Field

Jump to: basic info | weather | frequencies | runways | comments

Related pages: nearby airports | nearby navaids | notams | map

Basic information (top)

Codes: CYYO
Location: lon 51.809888, lat -104.169788, elev 1,740 ft / 530 m msl
Status: small_airport
Scheduled airline service: no
Links: Wikipedia Mobile

Weather (top)

Current conditions for Yorkton Municipal Airport 72nm (133km) ESE (rec'd 2015/02/28 22:00Z):

CYQV 282200Z AUTO 25009KT 9SM CLR M11/M15 A3003 RMK SLP217

Airport forecast for Yorkton Municipal Airport 72nm (133km) ESE (rec'd 2015/02/28 18:39Z):

TAF CYQV 281738Z 2818/0106 24006KT P6SM OVC050 
      TEMPO 2818/2820 SCT050 
     FM282000 27010KT P6SM SCT040 
     FM282300 25012KT P6SM SCT040 SCT100 
      TEMPO 2823/0103 BKN040 BKN100 
     FM010300 27012KT P6SM SCT020 BKN040 
      TEMPO 0103/0106 BKN020 
      RMK FCST BASED ON AUTO OBS. NXT FCST BY 010000Z

Frequencies (top)

Verify before use: may be inaccurate or out of date.

ATF: 123.2 MHz (ATF)

Runways (top)

09/27: 3,000 x 75 ft (914 x 23 m) — paved — lighted

Latest comments (top)

Wynyard Airport renamed W.B. Needham Field: The Wynyard Airport was renamed "W.B. ... [read]

More... (top)

See also NOTAMs and nearby airports and navaids, or visit the Wynyard / W.B. Needham Field page at the main OurAirports website..